Temperature
13 14 12 12 13 12 12 12 12 12 12 14 13 12 14 14 14 13 12 12 12 11 11 10 10 9 8 8 8 7 6 6 5 5 5 4 4 3 3 2 2 2 1 1
13 13 13 13 13 12 12 13 12 12 12 13 14 14 13 13 12 12 12 12 12 11 11 10 9 9 8 8 7 6 6 5 5 4 4 3 3 2 2 2 1 1 1 0
11 13 13 12 13 13 12 12 12 13 14 13 12 11 12 13 13 13 13 12 11 11 10 10 9 8 8 7 6 6 5 5 4 4 3 3 2 2 2 1 1 1 0 -0
10 11 11 12 13 13 13 13 12 12 12 12 12 13 13 13 13 13 12 12 11 10 10 9 8 8 7 6 6 5 5 4 4 3 3 2 2 1 1 1 0 0 -0 -1
8 9 10 11 12 12 12 12 12 12 11 11 10 10 11 12 12 13 12 11 11 10 9 8 7 7 6 6 5 5 4 4 3 3 2 2 1 1 0 0 -0 -1 -1 -1
7 9 9 12 13 13 13 12 12 11 9 9 9 9 9 12 12 11 11 10 9 9 8 7 7 6 6 5 5 4 4 3 3 2 2 1 1 0 -0 -1 -1 -1 -1 -2
7 8 9 11 12 12 12 12 13 12 11 10 9 10 12 11 11 10 10 9 8 8 7 6 6 5 5 4 4 3 3 2 2 2 1 1 0 -0 -1 -1 -1 -2 -2 -2
7 8 9 10 10 11 12 12 13 13 13 12 12 11 11 10 10 9 8 8 7 7 6 6 5 5 4 4 3 3 2 2 2 1 1 0 -1 -1 -1 -2 -2 -2 -2 -2
9 10 11 12 12 13 13 13 13 13 13 12 11 11 10 9 8 8 7 7 6 6 5 5 4 4 3 3 2 2 2 1 1 1 0 -1 -1 -2 -2 -2 -3 -3 -3 -4
8 8 10 11 12 13 13 13 13 13 13 12 11 10 9 8 7 7 6 6 5 5 5 4 4 3 3 2 2 1 1 1 0 -0 -1 -1 -2 -2 -3 -3 -3 -4 -4 -5
8 9 9 10 12 12 12 12 12 12 11 11 10 9 8 7 7 6 5 5 4 4 4 3 3 3 2 2 1 1 0 0 -0 -1 -1 -2 -2 -3 -3 -4 -4 -5 -6 -6
9 9 9 11 13 12 12 12 11 11 10 10 9 9 8 7 6 5 5 4 4 3 3 3 2 2 2 1 0 -0 -0 -1 -1 -2 -2 -3 -3 -3 -3 -4 -5 -6 -6 -7
12 13 12 12 12 12 11 11 10 10 10 9 8 7 7 6 5 4 4 3 3 3 2 2 2 1 1 0 -0 -1 -1 -1 -2 -2 -3 -3 -4 -4 -5 -4 -5 -6 -6 -7
12 12 10 11 11 11 10 10 9 8 8 7 7 6 5 5 4 3 3 3 2 2 2 1 1 1 0 -0 -1 -1 -2 -2 -3 -3 -4 -4 -5 -5 -6 -6 -6 -6 -7 -7
11 11 11 10 10 9 9 8 7 7 6 6 5 5 4 4 3 3 2 2 2 2 1 1 0 0 -0 -1 -1 -2 -2 -3 -3 -4 -4 -5 -6 -6 -7 -7 -7 -8 -8 -8
9 9 9 9 8 8 7 7 6 6 5 5 4 4 3 3 3 2 2 1 1 1 1 0 -0 -1 -1 -1 -2 -3 -3 -4 -4 -5 -5 -6 -6 -7 -7 -8 -8 -8 -9 -9
8 7 7 7 7 6 6 6 6 5 4 4 3 3 2 2 2 2 1 1 1 0 -0 -1 -1 -1 -2 -2 -3 -3 -4 -4 -5 -6 -6 -7 -7 -8 -8 -8 -9 -9 -9 -9
8 8 8 7 7 6 5 5 4 4 3 3 2 2 2 1 1 1 1 0 -0 -0 -1 -1 -2 -2 -2 -3 -4 -4 -5 -5 -6 -6 -7 -8 -8 -8 -9 -9 -9 -9 -10 -10
6 6 6 5 5 5 4 4 3 3 2 2 2 1 1 1 0 0 -0 -0 -1 -1 -1 -2 -2 -3 -3 -4 -5 -5 -6 -6 -7 -7 -8 -8 -9 -9 -9 -10 -10 -10 -10 -10
5 5 5 4 4 4 3 3 2 2 1 1 1 1 0 0 -0 -1 -1 -1 -1 -2 -3 -3 -3 -4 -4 -5 -5 -6 -7 -7 -8 -8 -9 -9 -9 -10 -10 -10 -10 -11 -11 -11
4 4 3 3 3 2 2 2 1 1 1 0 0 -0 -0 -1 -1 -1 -2 -2 -2 -3 -3 -4 -4 -5 -5 -6 -6 -7 -8 -8 -9 -9 -9 -10 -10 -10 -11 -11 -11 -11 -11 -12
2 2 2 2 2 1 1 1 1 0 0 -0 -1 -1 -1 -1 -2 -2 -2 -3 -3 -4 -4 -5 -5 -5 -6 -7 -8 -8 -8 -9 -9 -10 -10 -10 -11 -11 -11 -11 -12 -12 -12 -12
2 2 1 1 1 0 0 -0 -0 -0 -1 -1 -1 -2 -2 -2 -3 -3 -3 -4 -4 -5 -5 -5 -6 -7 -7 -8 -8 -9 -9 -9 -10 -10 -11 -11 -11 -12 -12 -12 -12 -12 -12 -12
1 1 0 0 0 -0 -0 -1 -1 -1 -1 -2 -2 -2 -3 -3 -3 -4 -4 -5 -5 -5 -6 -6 -7 -7 -8 -8 -9 -9 -10 -10 -10 -11 -11 -12 -12 -12 -12 -12 -12 -13 -13 -13
0 -0 -0 -0 -1 -1 -1 -1 -2 -2 -2 -2 -2 -3 -3 -4 -4 -4 -5 -5 -6 -6 -6 -7 -7 -8 -8 -9 -9 -10 -10 -11 -11 -12 -12 -12 -12 -12 -13 -13 -13 -13 -13 -13
-1 -1 -1 -1 -1 -2 -2 -2 -2 -3 -3 -3 -3 -3 -4 -4 -5 -5 -6 -6 -6 -7 -7 -8 -8 -8 -9 -9 -10 -10 -11 -11 -11 -12 -12 -12 -13 -13 -13 -13 -13 -13 -13 -13
-1 -1 -2 -2 -2 -2 -3 -3 -3 -3 -4 -4 -4 -4 -5 -5 -6 -6 -6 -7 -7 -8 -8 -8 -9 -9 -10 -10 -11 -11 -11 -12 -12 -12 -12 -13 -13 -13 -13 -13 -13 -13 -13 -13
Wind_Speed
8 6 7 8 9 12 13 13 11 10 11 12 9 10 9 8 8 9 10 11 13 12 11 10 9 9 8 7 6 5 5 4 4 5 5 5 6 6 7 7 8 8 8 9
6 7 7 7 9 11 12 11 12 11 12 10 7 5 6 8 10 11 11 12 12 11 11 11 11 10 8 7 6 5 4 4 4 4 5 6 6 7 7 8 8 8 9 9
5 4 3 8 10 11 8 9 10 14 16 8 6 8 9 10 11 12 11 11 11 12 11 11 10 10 9 7 5 4 4 4 5 5 6 7 7 7 8 8 8 9 9 9
4 4 8 9 7 9 10 10 11 9 7 7 8 5 2 6 9 9 9 10 10 9 9 8 7 7 6 5 4 4 4 4 5 6 7 7 7 8 8 8 8 8 9 10
5 6 7 8 5 7 9 9 8 11 8 4 5 4 3 2 5 8 8 8 8 8 8 8 8 7 6 4 3 3 4 6 6 6 7 7 8 9 8 8 8 9 9 10
6 6 8 9 5 4 5 7 7 8 8 8 8 3 5 3 5 7 8 8 8 8 8 8 6 6 5 4 3 5 6 7 7 6 7 8 9 9 8 8 9 9 10 10
6 7 8 8 4 7 6 9 4 8 9 11 10 6 4 7 6 7 8 9 9 9 7 6 5 5 4 4 5 6 6 6 6 7 7 8 8 8 8 9 9 9 11 10
7 6 10 6 8 10 9 3 5 7 8 9 6 5 7 8 9 10 9 8 8 7 5 4 4 4 4 5 6 5 5 6 7 8 8 7 8 8 8 9 9 10 11 11
11 10 6 8 9 7 6 6 6 7 7 9 8 7 8 8 9 8 8 7 6 6 5 3 3 4 5 5 5 5 6 7 8 8 8 8 8 9 8 8 8 10 9 11
6 8 6 6 5 5 7 7 6 7 8 10 9 9 9 9 8 7 6 6 5 5 4 3 3 3 5 5 5 5 7 8 7 8 8 8 7 7 8 8 9 10 10 11
6 5 2 5 8 8 6 6 6 6 7 9 10 9 9 9 8 7 5 5 5 4 4 4 4 4 5 5 5 6 7 8 8 7 8 8 8 7 9 8 10 12 10 10
9 9 8 8 9 9 9 8 8 8 6 6 9 10 9 8 7 6 6 5 4 3 4 4 4 6 6 5 5 6 7 7 7 7 7 8 9 10 14 16 21 23 22 21
7 5 6 4 5 8 9 8 8 8 9 8 7 8 9 7 6 6 5 5 4 4 4 5 5 6 7 6 6 7 8 8 7 7 8 8 9 10 13 15 18 20 21 23
5 7 5 5 6 7 7 7 7 7 6 8 7 8 8 6 6 6 5 4 4 4 4 5 6 7 7 6 7 8 8 10 10 8 8 9 9 10 10 13 15 11 13 20
6 6 7 6 6 7 7 8 9 8 7 7 7 8 8 7 6 5 3 3 2 3 5 5 7 8 7 7 7 8 8 7 8 8 8 9 9 10 10 12 13 13 11 12
6 5 7 8 8 8 8 9 9 8 8 7 7 7 6 6 4 3 2 2 3 5 6 6 8 9 8 7 8 8 8 14 13 9 8 9 9 10 11 12 12 12 12 11
8 7 7 7 8 8 7 8 9 9 8 8 7 7 6 5 3 2 3 3 4 6 7 7 9 9 8 8 8 7 8 10 16 12 9 10 10 11 11 12 12 12 12 14
8 9 9 10 10 9 8 8 9 9 7 7 7 6 5 4 3 3 4 4 5 7 8 8 8 9 8 8 8 7 8 8 8 9 10 10 11 11 11 12 13 14 13 14
7 8 9 9 10 10 9 8 8 8 7 7 6 5 3 3 3 4 4 4 6 8 8 8 12 10 9 10 12 7 8 10 10 10 10 15 15 11 11 12 13 13 13 13
8 9 10 10 9 9 10 9 9 7 6 6 5 3 2 3 3 4 5 6 7 7 8 10 10 9 9 10 14 8 9 10 11 11 11 11 12 12 11 12 13 13 13 12
11 11 12 11 10 9 9 9 8 7 5 4 4 3 3 4 4 4 5 7 8 8 8 13 9 8 8 11 15 8 9 10 11 11 11 12 12 13 13 13 13 14 13 13
10 11 11 11 11 9 6 6 6 6 4 2 2 2 3 5 5 6 7 7 9 12 9 7 7 12 15 18 9 8 9 10 11 10 10 11 12 13 13 13 13 14 13 12
10 10 10 10 9 8 6 5 4 3 2 2 2 3 5 5 5 5 8 6 6 13 11 8 13 21 24 14 8 8 10 11 11 11 11 11 12 13 13 14 13 13 12 12
10 9 8 8 7 6 4 2 1 1 1 3 4 5 5 5 6 6 7 12 15 17 10 14 21 23 22 9 8 9 10 11 11 11 12 12 12 12 13 13 13 13 13 14
9 8 7 7 5 3 2 1 1 1 2 3 5 6 5 5 6 7 7 9 15 17 10 14 21 23 14 10 10 11 11 11 13 13 12 12 12 13 13 13 13 14 14 14
6 5 4 3 3 2 1 0 1 2 3 4 5 5 5 5 7 7 8 9 11 16 12 10 11 14 10 11 11 12 11 13 14 13 13 14 14 14 14 14 15 14 14 14
6 4 4 3 2 1 1 1 2 3 4 5 7 6 6 7 7 8 9 9 10 10 10 10 10 10 11 11 11 12 12 12 12 12 13 13 13 13 14 15 14 14 14 14
Wind_Direction
213 212 177 200 207 194 201 211 215 233 231 244 241 231 226 213 195 184 185 184 183 181 177 170 167 167 167 168 169 168 174 199 230 246 253 261 268 272 275 278 279 279 282 283
217 217 206 221 222 208 214 221 229 247 258 243 241 218 211 202 192 193 193 188 182 176 171 171 170 168 166 169 173 170 185 219 240 253 261 265 268 271 275 277 278 279 279 280
216 218 195 244 222 209 209 210 202 230 246 237 217 215 212 204 199 199 193 182 176 174 173 171 170 166 169 173 171 176 202 232 248 255 263 266 269 273 274 276 276 279 278 277
170 160 222 239 222 205 216 234 218 228 244 223 218 208 206 198 195 193 181 172 167 160 157 156 154 154 155 159 169 190 221 245 254 257 262 267 270 271 273 272 274 276 278 278
158 206 258 283 241 191 201 252 228 223 230 186 126 83 334 265 189 181 171 159 153 150 146 144 148 150 148 161 180 210 238 250 255 255 260 268 271 273 274 275 277 276 276 278
157 188 225 237 223 173 141 260 241 193 188 169 139 168 245 193 146 136 131 133 134 132 129 137 148 145 149 180 206 235 245 252 256 257 259 265 269 273 275 274 277 281 281 277
178 212 249 246 195 126 175 239 213 178 177 171 185 199 172 137 128 131 130 131 130 129 135 149 152 147 171 204 231 242 251 260 265 264 264 265 269 271 277 280 283 284 284 281
173 204 245 218 149 183 212 186 166 170 173 175 175 132 135 138 138 136 131 129 129 131 140 152 154 159 198 234 245 256 263 267 270 270 272 276 273 277 278 281 286 288 289 289
194 213 228 186 196 205 167 171 180 172 171 157 151 158 153 149 146 143 138 137 134 139 146 163 178 182 220 248 262 269 272 272 274 276 275 274 274 280 285 282 284 290 291 293
216 245 233 216 213 193 184 184 178 168 160 159 162 162 158 154 151 147 143 144 139 140 157 200 225 229 236 258 269 271 273 276 278 280 281 278 275 275 280 283 285 288 290 292
219 243 215 232 214 198 180 162 150 148 161 166 157 159 161 160 158 154 147 145 146 160 191 226 247 258 262 266 271 273 275 277 279 276 278 282 277 271 279 270 276 288 288 286
211 205 189 216 210 183 174 179 170 156 153 158 161 158 154 155 153 149 148 148 158 184 215 242 256 267 273 271 266 269 276 278 277 278 280 281 287 291 286 287 294 295 294 294
197 177 178 195 173 172 177 178 169 164 160 154 149 146 145 144 145 145 149 161 187 212 233 250 262 271 275 274 269 265 269 276 278 276 280 283 287 292 299 300 296 294 294 296
160 134 149 180 180 167 157 149 136 128 134 138 137 133 132 129 138 149 169 191 207 228 248 258 266 272 275 275 272 271 271 280 284 276 277 280 283 284 289 296 302 297 292 295
185 175 171 159 141 136 134 129 127 129 127 121 125 131 135 141 155 172 188 201 224 250 261 267 272 277 280 277 274 274 276 276 277 275 275 278 282 286 287 289 292 295 295 296
170 144 140 146 152 147 140 142 144 148 141 134 134 138 141 145 153 172 200 207 231 260 269 272 274 278 281 278 276 276 274 286 294 288 283 285 286 287 289 290 291 292 294 297
158 169 170 167 165 161 161 157 154 151 145 142 145 140 134 132 145 200 241 251 251 260 267 269 273 280 281 277 274 275 274 283 292 293 284 285 286 286 287 288 290 291 291 295
185 184 174 167 164 157 147 140 139 139 142 143 137 135 142 159 198 238 261 278 285 284 276 268 271 281 278 276 274 272 274 277 278 280 284 286 288 288 290 290 291 291 293 295
152 152 149 147 145 142 140 138 137 134 132 134 138 150 168 197 223 249 267 277 281 285 283 279 296 296 285 284 293 277 276 281 285 285 286 292 295 290 289 289 290 290 293 294
126 127 125 122 121 126 129 129 127 125 129 132 134 144 194 238 249 260 267 267 261 259 271 286 290 282 280 282 294 281 277 282 287 290 290 289 290 291 290 290 290 291 291 290
118 117 117 116 112 112 120 125 126 128 129 134 151 191 233 258 262 261 267 281 279 271 277 291 292 284 287 290 295 283 281 285 288 290 291 292 292 292 291 290 290 291 291 290
114 115 115 114 113 108 105 110 118 124 129 143 186 225 256 272 275 271 257 259 275 291 296 282 281 291 300 301 291 285 285 287 289 289 288 289 290 290 290 290 289 290 289 287
111 112 112 113 115 111 99 99 111 126 152 205 241 256 262 268 269 277 289 278 278 294 299 284 294 301 305 305 292 289 289 289 290 289 288 287 287 287 288 288 288 288 287 287
108 106 106 105 105 104 101 99 96 119 239 265 264 264 268 280 282 263 263 290 302 302 297 296 303 306 309 305 293 291 290 289 288 287 287 287 286 286 287 288 288 287 286 285
107 106 106 107 105 110 119 96 23 323 297 287 283 277 268 257 270 286 286 288 298 304 298 300 304 307 307 295 292 290 289 287 289 292 290 291 290 289 288 287 287 287 287 286
105 106 105 105 114 120 116 84 305 297 298 299 298 291 287 282 280 285 289 289 290 300 301 296 296 299 296 292 291 290 289 292 294 292 289 289 289 288 288 288 286 286 286 284
92 90 88 75 61 64 52 306 289 292 292 293 297 297 295 296 296 295 295 296 297 297 296 296 295 293 293 292 291 291 291 290 290 289 290 290 289 289 289 287 287 286 285 284
Height
1476 1474 1478 1479 1479 1482 1486 1486 1491 1485 1482 1474 1470 1470 1469 1469 1471 1473 1475 1478 1480 1483 1487 1491 1495 1498 1501 1503 1505 1506 1506 1506 1506 1505 1503 1501 1499 1496 1493 1490 1486 1482 1478 1474
1474 1472 1474 1475 1474 1476 1477 1478 1480 1478 1475 1465 1465 1465 1466 1466 1468 1469 1471 1473 1477 1480 1484 1488 1491 1494 1497 1499 1501 1502 1502 1502 1501 1500 1498 1496 1493 1490 1487 1483 1480 1476 1471 1467
1479 1473 1473 1478 1470 1470 1470 1469 1470 1471 1464 1460 1463 1462 1462 1462 1464 1465 1467 1470 1473 1477 1480 1484 1488 1491 1494 1496 1497 1498 1498 1497 1496 1495 1492 1490 1487 1484 1480 1477 1473 1468 1464 1460
1479 1478 1485 1468 1458 1458 1461 1459 1459 1458 1456 1456 1457 1458 1459 1460 1461 1463 1465 1468 1471 1475 1478 1482 1485 1488 1490 1492 1493 1493 1493 1492 1491 1489 1486 1484 1481 1477 1474 1470 1465 1461 1456 1452
1482 1481 1475 1464 1455 1455 1459 1457 1452 1453 1453 1454 1456 1457 1458 1458 1460 1461 1463 1466 1469 1473 1477 1480 1483 1485 1487 1488 1489 1488 1488 1487 1485 1483 1480 1477 1474 1470 1467 1462 1457 1453 1449 1444
1478 1478 1475 1459 1449 1448 1453 1457 1447 1447 1450 1453 1455 1461 1458 1457 1458 1460 1463 1466 1469 1472 1475 1478 1480 1482 1483 1484 1484 1483 1482 1481 1479 1477 1474 1470 1467 1463 1459 1455 1449 1445 1440 1436
1472 1472 1464 1450 1446 1449 1460 1453 1443 1443 1445 1448 1451 1453 1453 1454 1456 1459 1462 1465 1468 1471 1474 1476 1477 1479 1479 1479 1479 1478 1477 1475 1473 1470 1467 1464 1460 1456 1451 1446 1441 1436 1431 1427
1467 1469 1463 1442 1445 1447 1444 1440 1440 1442 1443 1445 1448 1449 1451 1453 1455 1458 1461 1464 1467 1469 1472 1473 1474 1475 1475 1475 1474 1473 1471 1469 1466 1464 1460 1457 1452 1448 1444 1438 1433 1427 1421 1416
1445 1444 1437 1435 1435 1435 1437 1438 1439 1440 1442 1444 1446 1448 1450 1452 1455 1457 1460 1463 1465 1467 1469 1470 1471 1471 1471 1470 1469 1467 1464 1462 1459 1456 1453 1449 1445 1440 1435 1430 1425 1418 1413 1406
1439 1435 1432 1431 1432 1433 1435 1436 1437 1439 1440 1442 1443 1446 1448 1451 1454 1456 1459 1461 1463 1465 1466 1467 1467 1467 1466 1465 1463 1460 1458 1455 1452 1448 1444 1441 1436 1432 1427 1422 1416 1410 1405 1399
1432 1429 1429 1428 1428 1430 1432 1434 1435 1437 1438 1440 1442 1444 1446 1449 1452 1455 1457 1459 1461 1462 1463 1464 1463 1463 1461 1459 1457 1454 1451 1448 1444 1440 1436 1431 1427 1424 1418 1414 1410 1404 1398 1393
1424 1421 1423 1423 1424 1427 1429 1430 1432 1434 1436 1438 1440 1441 1444 1447 1450 1453 1455 1457 1458 1459 1459 1459 1459 1457 1456 1453 1450 1447 1443 1440 1436 1432 1428 1423 1418 1413 1409 1406 1401 1396 1391 1387
1413 1415 1417 1419 1421 1423 1425 1427 1429 1431 1433 1435 1437 1440 1442 1445 1448 1451 1453 1454 1455 1455 1455 1454 1453 1452 1450 1447 1444 1440 1436 1432 1428 1424 1420 1415 1409 1404 1397 1392 1390 1386 1382 1378
1410 1412 1414 1416 1418 1420 1422 1425 1427 1429 1431 1433 1435 1438 1441 1443 1446 1448 1450 1451 1451 1451 1451 1449 1448 1446 1443 1440 1437 1433 1429 1425 1421 1416 1411 1407 1402 1396 1390 1384 1377 1372 1371 1368
1407 1409 1411 1413 1415 1417 1419 1422 1424 1426 1429 1431 1434 1436 1439 1441 1443 1445 1447 1447 1447 1446 1445 1444 1441 1439 1437 1433 1429 1425 1421 1417 1413 1408 1403 1398 1393 1388 1383 1377 1371 1365 1360 1356
1403 1405 1407 1409 1411 1414 1416 1419 1421 1424 1427 1429 1432 1435 1437 1439 1441 1442 1443 1443 1442 1441 1439 1437 1435 1432 1429 1425 1421 1417 1413 1409 1405 1399 1394 1389 1384 1379 1374 1369 1363 1358 1353 1348
1399 1401 1403 1406 1408 1411 1413 1416 1419 1422 1425 1428 1430 1433 1435 1437 1438 1439 1439 1438 1437 1436 1434 1431 1428 1425 1422 1418 1414 1409 1405 1400 1396 1391 1386 1381 1376 1370 1365 1360 1355 1350 1345 1341
1394 1397 1399 1401 1404 1408 1411 1414 1418 1421 1423 1426 1429 1431 1433 1434 1434 1434 1434 1433 1431 1429 1428 1425 1421 1417 1414 1410 1406 1401 1396 1391 1386 1382 1376 1372 1367 1362 1357 1352 1347 1342 1336 1332
1390 1393 1397 1400 1403 1406 1409 1413 1416 1420 1422 1425 1427 1429 1430 1430 1430 1430 1429 1427 1425 1422 1420 1417 1414 1410 1406 1402 1398 1392 1388 1383 1377 1373 1368 1363 1358 1353 1348 1343 1338 1333 1328 1323
1388 1391 1395 1398 1402 1405 1409 1412 1415 1418 1421 1423 1425 1426 1427 1427 1426 1425 1423 1421 1419 1416 1412 1409 1405 1401 1397 1393 1389 1384 1379 1374 1369 1364 1359 1354 1349 1343 1339 1334 1329 1324 1319 1314
1387 1391 1394 1398 1402 1405 1409 1412 1415 1417 1420 1421 1422 1423 1423 1422 1421 1419 1417 1414 1412 1409 1405 1401 1398 1393 1389 1384 1380 1375 1370 1365 1360 1355 1350 1344 1339 1334 1329 1324 1319 1315 1310 1305
1388 1392 1396 1399 1402 1406 1409 1412 1414 1416 1418 1419 1419 1419 1418 1417 1415 1413 1411 1408 1404 1401 1397 1393 1389 1385 1380 1376 1371 1366 1361 1356 1351 1345 1340 1335 1330 1324 1319 1315 1310 1305 1301 1296
1391 1394 1398 1401 1404 1407 1410 1412 1414 1415 1416 1416 1416 1415 1413 1412 1409 1407 1403 1401 1397 1393 1389 1384 1380 1376 1372 1366 1361 1356 1351 1346 1341 1336 1330 1325 1320 1315 1310 1305 1300 1296 1291 1287
1394 1397 1400 1403 1405 1407 1409 1411 1412 1413 1413 1412 1412 1410 1408 1406 1403 1400 1397 1393 1389 1385 1380 1376 1372 1367 1362 1357 1352 1346 1341 1336 1331 1325 1320 1315 1311 1306 1301 1296 1291 1286 1281 1277
1396 1399 1402 1404 1406 1407 1408 1409 1410 1409 1409 1408 1407 1405 1403 1400 1396 1393 1389 1385 1381 1376 1371 1367 1362 1358 1352 1347 1342 1337 1331 1326 1321 1316 1311 1306 1301 1296 1291 1286 1281 1276 1271 1266
1398 1401 1403 1404 1405 1406 1407 1407 1406 1406 1404 1403 1401 1399 1397 1393 1390 1385 1381 1377 1372 1368 1363 1358 1353 1348 1343 1338 1332 1327 1322 1317 1312 1306 1301 1296 1291 1286 1281 1276 1271 1266 1261 1256
1399 1401 1402 1403 1404 1404 1404 1404 1403 1401 1399 1397 1394 1392 1389 1386 1382 1378 1373 1368 1364 1359 1353 1348 1344 1338 1333 1328 1323 1318 1313 1307 1302 1297 1292 1287 1281 1276 1271 1266 1261 1256 1251 1246